Hourly Data Report for September 17, 2017

All times are specified in Local Standard Time (LST). Add 1 hour to adjust for Daylight Saving Time where and when it is observed.

QIKIQTARJUAQ A
NUNAVUT

67°32'48.000" N
64°01'54.000" W
5.50 m
2400577
YVM

Download Data

Hourly Data (September 2017)
Hourly Data Report for September 17, 2017
Temp Definition
°C
Dew Point Temp Definition
°C
Rel Hum Definition
%
Wind Dir Definition
10's deg

Wind Spd Definition
km/h
Visibility Definition
km
Stn Press Definition
kPa
Hmdx Definition


Wind Chill Definition


Weather Definition


TIME
00:00 Legend Double Dagger 1.9 -2.0 75 36 22 16.1 100.76     LegendNANA
01:00 Legend Double Dagger 2.0 -1.9 76 31 17 16.1 100.82     LegendNANA
02:00 Legend Double Dagger 1.1 -2.2 79 36 9 16.1 100.89     LegendNANA
03:00 Legend Double Dagger 1.1 -2.6 76 31 13 16.1 100.98     LegendNANA
04:00 Legend Double Dagger 1.5 -2.2 77 33 11 16.1 101.04     LegendNANA
05:00 Legend Double Dagger 1.6 -2.2 76 32 13 16.1 101.12     LegendNANA
06:00 Legend Double Dagger 1.6 -3.0 72 LegendMM 4 16.1 101.19     LegendNANA
07:00 Legend Double Dagger 1.9 -1.6 78 31 5 16.1 101.24     LegendNANA
08:00 Legend Double Dagger 2.6 -2.8 67   0 16.1 101.30     LegendNANA
09:00 Legend Double Dagger 2.9 -2.5 68 15 9 16.1 101.31     LegendNANA
10:00 Legend Double Dagger 3.1 -2.1 69 6 9 16.1 101.34     LegendNANA
11:00 Legend Double Dagger 3.5 -2.6 65 8 9 16.1 101.35     LegendNANA
12:00 Legend Double Dagger 3.7 -2.2 65 16 9 16.1 101.36     LegendNANA
13:00 Legend Double Dagger 3.5 -1.5 70 16 9 16.1 101.39     LegendNANA
14:00 Legend Double Dagger 3.0 -1.8 71 25 8 16.1 101.42     LegendNANA
15:00 Legend Double Dagger 2.5 -2.0 72 LegendMM 9 16.1 101.44     LegendNANA
16:00 Legend Double Dagger 2.3 -1.9 74   0 16.1 101.46     LegendNANA
17:00 Legend Double Dagger 1.6 -2.5 74 12 5 16.1 101.47     LegendNANA
18:00 Legend Double Dagger 0.5 -2.9 78 14 5 16.1 101.50     LegendNANA
19:00 Legend Double Dagger 0.6 -2.6 79 LegendMM 5 16.1 101.51     LegendNANA
20:00 Legend Double Dagger 0.4 -1.9 85   0 16.1 101.52     LegendNANA
21:00 Legend Double Dagger 0.4 -1.5 87 21 13 16.1 101.53     LegendNANA
22:00 Legend Double Dagger -0.1 -1.9 88 20 13 16.1 101.52   -4 LegendNANA
23:00 Legend Double Dagger 0.0 -1.8 87 19 9 16.1 101.54   -3 LegendNANA

Notes on Data Quality.

Legend

  • E = Estimated
  • M = Missing
  • NA = Not Available
  • ‡ = Partner data that is not subject to review by the National Climate Archives
Date modified: